TimeMDT,TemperatureF,Dew PointF,Humidity,Sea Level PressureIn,VisibilityMPH,Wind Direction,Wind SpeedMPH,Gust SpeedMPH,PrecipitationIn,Events,Conditions,WindDirDegrees,DateUTC
12:53 AM,46.0,23.0,40,29.89,10.0,SW,21.9,27.6,N/A,,Partly Cloudy,230,2013-04-25 06:53:00
1:53 AM,46.0,21.9,39,29.89,10.0,WSW,15.0,-,N/A,,Clear,250,2013-04-25 07:53:00
2:53 AM,45.0,21.9,40,29.88,10.0,WSW,16.1,-,N/A,,Clear,240,2013-04-25 08:53:00
3:53 AM,44.1,21.9,42,29.88,10.0,WSW,13.8,-,N/A,,Clear,240,2013-04-25 09:53:00
4:53 AM,44.1,21.0,40,29.88,10.0,WSW,12.7,-,N/A,,Clear,240,2013-04-25 10:53:00
5:53 AM,44.1,21.0,40,29.87,10.0,WSW,10.4,-,N/A,,Partly Cloudy,250,2013-04-25 11:53:00
6:53 AM,42.1,21.0,43,29.88,10.0,SW,9.2,-,N/A,,Partly Cloudy,220,2013-04-25 12:53:00
7:53 AM,46.0,21.0,37,29.86,10.0,WSW,17.3,-,N/A,,Scattered Clouds,240,2013-04-25 13:53:00
8:53 AM,50.0,21.9,33,29.86,10.0,WSW,17.3,-,N/A,,Scattered Clouds,240,2013-04-25 14:53:00
9:53 AM,55.0,21.0,27,29.86,10.0,WSW,17.3,-,N/A,,Scattered Clouds,240,2013-04-25 15:53:00
10:53 AM,59.0,21.9,24,29.84,10.0,West,9.2,-,N/A,,Partly Cloudy,270,2013-04-25 16:53:00
11:53 AM,63.0,19.0,18,29.82,10.0,NW,10.4,21.9,N/A,,Partly Cloudy,320,2013-04-25 17:53:00
12:53 PM,64.0,19.9,18,29.80,10.0,NW,15.0,25.3,N/A,,Partly Cloudy,320,2013-04-25 18:53:00
1:53 PM,66.0,19.0,17,29.78,10.0,West,16.1,31.1,N/A,,Scattered Clouds,280,2013-04-25 19:53:00
2:53 PM,66.0,19.9,17,29.78,10.0,WNW,17.3,28.8,N/A,,Scattered Clouds,300,2013-04-25 20:53:00
3:53 PM,66.9,19.0,16,29.77,10.0,WNW,16.1,23.0,N/A,,Scattered Clouds,300,2013-04-25 21:53:00
4:53 PM,66.9,19.9,17,29.77,10.0,NW,18.4,25.3,N/A,,Scattered Clouds,310,2013-04-25 22:53:00
5:53 PM,66.9,19.9,17,29.78,10.0,NW,17.3,26.5,N/A,,Partly Cloudy,310,2013-04-25 23:53:00
6:53 PM,66.0,21.0,18,29.80,10.0,NNW,15.0,-,N/A,,Partly Cloudy,330,2013-04-26 00:53:00
7:53 PM,62.1,21.9,21,29.82,10.0,North,10.4,-,N/A,,Partly Cloudy,350,2013-04-26 01:53:00
8:53 PM,54.0,24.1,31,29.86,10.0,NNW,9.2,-,N/A,,Partly Cloudy,340,2013-04-26 02:53:00
9:53 PM,54.0,23.0,30,29.90,10.0,North,5.8,-,N/A,,Partly Cloudy,10,2013-04-26 03:53:00
10:53 PM,51.1,25.0,36,29.93,10.0,NE,3.5,-,N/A,,Partly Cloudy,40,2013-04-26 04:53:00
11:53 PM,55.0,24.1,30,29.92,10.0,SE,3.5,-,N/A,,Mostly Cloudy,140,2013-04-26 05:53:00